Other Surface Observations
Issued by NWS

Home | Current Version | Previous Version | Text Only | Print | Product List | Glossary On
Versions: 1 2 3 4 5 6 7 8 9 10 11 12 13 14 15 16 17 18 19 20 21 22 23 24 25 26 27 28 29 30 31 32 33 34 35 36 37 38 39 40 41 42 43 44 45 46 47 48 49 50
512
SXUS52 KTAE 190718
OSOTAE
OSOTAE
North Florida/South Alabama/Southwest Georgia Weather Roundup
National Weather Service Tallahassee Florida
200 AM EST THU JAN 19 2017

Note: "fair" indicates few or no clouds below 12,000 feet with no
significant weather and/or obstructions to visibility.

!FLZ017-115-028-034-025-190800
...North Florida...

CITY           SKY/WX    TMP DP  RH WIND       PRES   REMARKS
TALLAHASSEE    FOG       62  62 100 CALM      30.07F VSB 1/4
APALACHICOLA   CLOUDY    63  63 100 CALM      30.07F
PERRY          FOG       64  63  97 CALM      30.08F VSB 1/2
CROSS CITY     FOG       59  59 100 CALM      30.08S VSB 3/4
JACKSONVILLE   CLOUDY    59  59 100 CALM      30.05F
$$

!FLZ112-006-005-002-011-190800
...Florida Panhandle...

CITY           SKY/WX    TMP DP  RH WIND       PRES   REMARKS
MARIANNA       PTCLDY    58  57  97 CALM      30.05F
BONIFAY        NOT AVBL
PANAMA CITY NW FOG       62  62 100 CALM      30.05F VSB 1/2
TYNDALL AFB    FOG       64  64 100 CALM      30.06F VSB 1/4
TYND DRONE APT FOG       64  64 100 CALM      30.06F VSB 3/8
DE FUNIAK SPR  FOG       60  60 100 CALM      30.07F VSB 1/4
EGLIN AFB      FOG       63  63 100 CALM      30.06F VSB 1/2
DESTIN         FOG       65  64  97 CALM      30.06F VSB 3/4
HURLBURT       FOG       63  58  86 CALM      30.05S VSB 1/4
CRESTVIEW      FOG       60  59  96 CALM      30.07F VSB 1/4
PENSACOLA      FOG       67  66  97 E3        30.05F VSB 1/4
$$

!ALZ063-066-190800
...South Alabama...

CITY           SKY/WX    TMP DP  RH WIND       PRES   REMARKS
DOTHAN         PTCLDY    57  57 100 CALM      30.10F FOG
OZARK CAIRNS   FOG       59  59 100 CALM      30.06S VSB 1/2
FT RUCKER HELI MOCLDY    57  55  93 CALM      30.06F
RUCKER HELI 3  NOT AVBL
RUCKER HELI 2  MOCLDY    57  54  89 CALM      30.06F
FLORALA APT    FOG       61  60  97 CALM      30.08F VSB 1/2
ANDALUSIA      FOG       60  58  92 CALM      30.06F VSB 1/4
TROY           PTCLDY    55  54  96 CALM      30.08S
EUFALA         FAIR      54  52  93 CALM      30.07R
MOBILE         FOG       67  66  97 SE5       30.05F VSB 1/4
$$

!GAZ120>161-190800
...Southwest and South Central Georgia...

CITY           SKY/WX    TMP DP  RH WIND       PRES   REMARKS
THOMASVILLE    FOG       55  55 100 CALM      30.08F VSB 1/4
BAINBRIDGE     CLEAR     55  55 100 CALM      30.07S
MOODY AFB      FOG       57  57 100 CALM      30.06S VSB 1/2
VALDOSTA       FOG       55  55 100 CALM      30.07F VSB 1/2
MOULTRIE       FOG       59  55  88 CALM      30.08S VSB 1
BLAKELY        PTCLDY    55  54  94 CALM      30.07F
ALBANY         CLEAR     56  55  97 CALM      30.09F
TIFTON         FAIR      56  56 100 CALM      30.07S
FITZGERALD     FAIR      59  59 100 CALM      30.09F
CORDELE        FAIR      57  56  95 CALM      30.08F
AMERICUS       FAIR      55  55 100 CALM      30.09S
HOMERVILLE     FAIR      54  54 100 CALM      30.08S FOG
$$

!GMZ750-755-770-775-190800
...Coastal and Buoy Obs...

STATION/POSITION TIME  TEMP    WIND        PRES    VSBY  WAVE
                       AIR SEA DIR/SP/G                  HT/PER
                 (UTC) (F)     (DEG/KT/KT) (MB)    (MI)  (FT/S)
KEATON BEACH     0700   66     200/  5/  6 1018.0F
CEDAR KEY        0700   66     240/  3/  4 1018.8F
C TOWER          0700   71     240/  4/  4 1018.7F
APALACHICOLA BUO 0650   73 73  200/  4/  4 1018.4F         2/ 6
PANAMA CITY BUOY 0650   74 75              1018.1F         2/ 6
MOBILE BUOY      NOT AVBL
ORANGE BCH AL BU 0650   67 65  140/  6/  6 1017.2F         2/ 5
$$




USA.gov is the U.S. government's official web portal to all federal, state and local government web resources and services.